Bedford Park, IL

12:18 PM CDT on July 25, 2016 (GMT -0500)
Chicago-Midway

Weather History for KMDW - May, 2013

Change the Weather History Date:

Monday, May 13, 2013

  Actual Average Record
Temperature  
Mean Temperature 50 °F 60 °F  
Max Temperature 61 °F 69 °F 90 °F (1982)
Min Temperature 38 °F 51 °F 30 °F (1938)
Degree Days  
Heating Degree Days 15 7  
Month to date heating degree days 109 105  
Since 1 July heating degree days 5737 5876  
Cooling Degree Days 0 2  
Month to date cooling degree days 9 15  
Year to date cooling degree days 17 28  
Moisture  
Dew Point 31 °F    
Average Humidity 47    
Maximum Humidity 76    
Minimum Humidity 25    
Precipitation  
Precipitation 0.00 in 0.14 in 1.46 in (1983)
Month to date precipitation 0.69 1.63  
Year to date precipitation 12.64 11.99  
Sea Level Pressure  
Sea Level Pressure 30.12 in    
Wind  
Wind Speed 6 mph (East)    
Max Wind Speed 20 mph    
Max Gust Speed 26 mph    
Visibility 10 miles    
Events      
T = Trace of Precipitation, MM = Missing Value Source: NWS Daily Summary

Daily Weather History Graph

Daily Weather History Graph

Search for Another Location

Airport or City:

Trip Planner

Search our weather history database for the weather conditions in past years. The results will help you decide how hot, cold, wet, or windy it might be!

Date:

Astronomy

May. 13, 2013 Rise Set
Actual Time 5:32 AM CDT 8:02 PM CDT
Civil Twilight 5:01 AM CDT 8:34 PM CDT
Nautical Twilight 4:22 AM CDT 9:13 PM CDT
Astronomical Twilight 3:38 AM CDT 9:57 PM CDT
Moon 8:18 AM CDT (5/13) 11:11 PM CDT (5/13)
Length of Visible Light 15h 32m
Length of Day
14h 29m
Waxing Crescent, 12% of the Moon is Illuminated
May 13
Waxing Crescent
May 17
First Quarter
May 24
Full
May 31
Last Quarter
Jun 8
New

Hourly Weather History & Observations

Time (CDT) Temp. Windchill Dew Point Humidity Pressure Visibility Wind Dir Wind Speed Gust Speed Precip Events Conditions
12:51 AM 43.0 °F 39.5 °F 32.0 °F 65% 30.12 in 10.0 mi SW 5.8 mph - N/A   Scattered Clouds
1:51 AM 41.0 °F - 30.9 °F 67% 30.12 in 10.0 mi Calm Calm - N/A   Partly Cloudy
2:51 AM 39.9 °F 35.1 °F 30.9 °F 70% 30.13 in 10.0 mi NE 6.9 mph - N/A   Clear
3:51 AM 42.1 °F 39.2 °F 34.0 °F 73% 30.13 in 10.0 mi East 4.6 mph - N/A   Clear
4:51 AM 41.0 °F - 32.0 °F 70% 30.13 in 10.0 mi Calm Calm - N/A   Clear
5:51 AM 39.0 °F - 32.0 °F 76% 30.14 in 10.0 mi Calm Calm - N/A   Clear
6:51 AM 44.1 °F - 33.1 °F 65% 30.17 in 10.0 mi Calm Calm - N/A   Clear
7:51 AM 46.0 °F - 32.0 °F 58% 30.18 in 10.0 mi Calm Calm - N/A   Clear
8:51 AM 48.9 °F - 30.9 °F 50% 30.19 in 10.0 mi Calm Calm - N/A   Clear
9:51 AM 53.1 °F - 30.9 °F 43% 30.19 in 10.0 mi WNW 3.5 mph - N/A   Clear
10:51 AM 55.9 °F - 26.1 °F 32% 30.19 in 10.0 mi NW 16.1 mph 19.6 mph N/A   Partly Cloudy
11:51 AM 57.9 °F - 23.0 °F 26% 30.18 in 10.0 mi West 4.6 mph - N/A   Partly Cloudy
12:51 PM 60.1 °F - 25.0 °F 26% 30.16 in 10.0 mi NW 10.4 mph 17.3 mph N/A   Partly Cloudy
1:51 PM 59.0 °F - 33.1 °F 38% 30.14 in 10.0 mi ENE 11.5 mph 26.5 mph N/A   Partly Cloudy
2:51 PM 57.9 °F - 32.0 °F 37% 30.14 in 10.0 mi East 12.7 mph - N/A   Partly Cloudy
3:51 PM 57.0 °F - 30.9 °F 37% 30.11 in 10.0 mi East 11.5 mph - N/A   Scattered Clouds
4:51 PM 57.0 °F - 30.0 °F 36% 30.10 in 10.0 mi East 11.5 mph - N/A   Mostly Cloudy
5:51 PM 57.0 °F - 30.0 °F 36% 30.09 in 10.0 mi East 9.2 mph - N/A   Mostly Cloudy
6:51 PM 53.6 °F - 30.2 °F 41% 30.07 in 10.0 mi East 9.2 mph - N/A   Overcast
7:51 PM 54.0 °F - 30.0 °F 40% 30.07 in 10.0 mi East 9.2 mph - N/A   Overcast
8:51 PM 54.0 °F - 30.9 °F 41% 30.05 in 10.0 mi ESE 6.9 mph - N/A   Overcast
9:51 PM 55.0 °F - 33.1 °F 43% 30.06 in 10.0 mi ENE 3.5 mph - N/A   Overcast
10:51 PM 55.9 °F - 36.0 °F 47% 30.04 in 10.0 mi ESE 4.6 mph - N/A   Overcast
11:51 PM 57.9 °F - 34.0 °F 41% 30.01 in 10.0 mi SSE 8.1 mph - N/A   Overcast